Time,TemperatureF,DewpointF,PressureIn,WindDirection,WindDirectionDegrees,WindSpeedMPH,WindSpeedGustMPH,Humidity,HourlyPrecipIn,Conditions,Clouds,dailyrainin,SoftwareType,DateUTC
2013-02-01 00:10:00,40.1,39.6,29.87,South,180,3.7,-999.0,98,-99.99,,,0.00,Acu-Link.com,2013-02-01 06:10:00,
2013-02-01 00:25:00,40.1,39.6,29.87,West,270,4.2,-999.0,98,-99.99,,,0.00,Acu-Link.com,2013-02-01 06:25:00,
2013-02-01 00:40:00,39.9,39.4,29.87,South,180,5.3,-999.0,98,-99.99,,,0.00,Acu-Link.com,2013-02-01 06:40:00,
2013-02-01 00:55:00,40.1,39.6,29.88,SSW,202,2.7,-999.0,98,-99.99,,,0.00,Acu-Link.com,2013-02-01 06:55:00,
2013-02-01 01:10:00,39.9,39.4,29.88,WSW,247,4.7,-999.0,98,-99.99,,,0.00,Acu-Link.com,2013-02-01 07:10:00,
2013-02-01 01:25:00,39.9,39.4,29.90,NNW,337,1.1,-999.0,98,-99.99,,,0.00,Acu-Link.com,2013-02-01 07:25:00,
2013-02-01 01:41:00,38.1,37.6,29.90,NNW,337,2.2,-999.0,98,-99.99,,,0.00,Acu-Link.com,2013-02-01 07:41:00,
2013-02-01 01:56:00,37.6,37.1,29.91,NNW,337,0.0,-999.0,98,-99.99,,,0.00,Acu-Link.com,2013-02-01 07:56:00,
2013-02-01 02:11:00,37.9,37.4,29.91,NNW,337,1.7,-999.0,98,-99.99,,,0.00,Acu-Link.com,2013-02-01 08:11:00,
2013-02-01 02:26:00,39.0,38.5,29.91,NNW,337,1.7,-999.0,98,-99.99,,,0.00,Acu-Link.com,2013-02-01 08:26:00,
2013-02-01 02:41:00,39.4,38.9,29.91,NNW,337,2.2,-999.0,98,-99.99,,,0.00,Acu-Link.com,2013-02-01 08:41:00,
2013-02-01 02:56:00,39.7,39.2,29.91,NNW,337,0.0,-999.0,98,-99.99,,,0.00,Acu-Link.com,2013-02-01 08:56:00,
2013-02-01 03:17:00,39.6,39.1,29.92,NNW,337,2.7,-999.0,98,-99.99,,,0.00,Acu-Link.com,2013-02-01 09:17:00,
2013-02-01 03:32:00,39.2,38.7,29.93,NNW,337,2.7,-999.0,98,-99.99,,,0.00,Acu-Link.com,2013-02-01 09:32:00,
2013-02-01 03:47:00,40.6,40.1,29.93,NNW,337,3.2,-999.0,98,-99.99,,,0.00,Acu-Link.com,2013-02-01 09:47:00,
2013-02-01 04:02:00,41.2,40.7,29.94,North,0,3.2,-999.0,98,-99.99,,,0.00,Acu-Link.com,2013-02-01 10:02:00,
2013-02-01 04:17:00,39.2,38.7,29.96,NNW,337,6.3,-999.0,98,-99.99,,,0.00,Acu-Link.com,2013-02-01 10:17:00,
2013-02-01 04:32:00,37.8,37.3,29.98,NNW,337,3.7,-999.0,98,-99.99,,,0.00,Acu-Link.com,2013-02-01 10:32:00,
2013-02-01 04:47:00,36.1,31.1,29.99,NNW,337,3.7,-999.0,82,-99.99,,,0.00,Acu-Link.com,2013-02-01 10:47:00,
2013-02-01 05:03:00,34.3,28.5,30.00,West,270,4.7,-999.0,79,-99.99,,,0.00,Acu-Link.com,2013-02-01 11:03:00,
2013-02-01 05:18:00,33.3,25.9,30.01,North,0,7.3,-999.0,74,-99.99,,,0.00,Acu-Link.com,2013-02-01 11:18:00,
2013-02-01 05:33:00,32.5,26.4,30.03,NNW,337,8.9,-999.0,78,-99.99,,,0.00,Acu-Link.com,2013-02-01 11:33:00,
2013-02-01 05:48:00,31.8,26.3,30.03,West,270,7.8,-999.0,80,-99.99,,,0.00,Acu-Link.com,2013-02-01 11:48:00,
2013-02-01 06:03:00,31.3,27.3,30.04,NNW,337,7.3,-999.0,85,-99.99,,,0.00,Acu-Link.com,2013-02-01 12:03:00,
2013-02-01 06:18:00,30.9,27.2,30.05,West,270,6.3,-999.0,86,-99.99,,,0.00,Acu-Link.com,2013-02-01 12:18:00,
2013-02-01 06:34:00,30.0,27.4,30.06,North,0,2.2,-999.0,90,-99.99,,,0.00,Acu-Link.com,2013-02-01 12:34:00,
2013-02-01 06:49:00,29.8,28.0,30.07,North,0,5.8,-999.0,93,-99.99,,,0.00,Acu-Link.com,2013-02-01 12:49:00,
2013-02-01 07:04:00,30.0,28.5,30.07,North,0,3.7,-999.0,94,-99.99,,,0.00,Acu-Link.com,2013-02-01 13:04:00,
2013-02-01 07:19:00,30.6,29.6,30.09,North,0,6.3,-999.0,96,-99.99,,,0.00,Acu-Link.com,2013-02-01 13:19:00,
2013-02-01 07:34:00,32.0,27.7,30.10,North,0,4.2,-999.0,84,-99.99,,,0.00,Acu-Link.com,2013-02-01 13:34:00,
2013-02-01 07:49:00,32.2,27.3,30.10,North,0,2.7,-999.0,82,-99.99,,,0.00,Acu-Link.com,2013-02-01 13:49:00,
2013-02-01 08:04:00,32.4,26.9,30.10,North,0,2.2,-999.0,80,-99.99,,,0.00,Acu-Link.com,2013-02-01 14:04:00,
2013-02-01 08:19:00,32.0,26.5,30.11,North,0,4.2,-999.0,80,-99.99,,,0.00,Acu-Link.com,2013-02-01 14:19:00,
2013-02-01 08:34:00,32.9,27.1,30.12,North,0,8.3,-999.0,79,-99.99,,,0.00,Acu-Link.com,2013-02-01 14:34:00,
2013-02-01 08:50:00,33.6,27.8,30.13,North,0,5.3,-999.0,79,-99.99,,,0.00,Acu-Link.com,2013-02-01 14:50:00,
2013-02-01 09:05:00,33.8,24.7,30.14,North,0,3.7,-999.0,69,-99.99,,,0.00,Acu-Link.com,2013-02-01 15:05:00,
2013-02-01 09:20:00,33.8,23.7,30.16,North,0,5.8,-999.0,66,-99.99,,,0.00,Acu-Link.com,2013-02-01 15:20:00,
2013-02-01 09:35:00,34.0,23.1,30.16,North,0,2.7,-999.0,64,-99.99,,,0.00,Acu-Link.com,2013-02-01 15:35:00,
2013-02-01 09:50:00,34.7,23.4,30.16,North,0,1.7,-999.0,63,-99.99,,,0.00,Acu-Link.com,2013-02-01 15:50:00,
2013-02-01 10:05:00,36.3,24.9,30.16,North,0,2.2,-999.0,63,-99.99,,,0.00,Acu-Link.com,2013-02-01 16:05:00,
2013-02-01 10:20:00,35.6,23.9,30.17,North,0,4.7,-999.0,62,-99.99,,,0.00,Acu-Link.com,2013-02-01 16:20:00,
2013-02-01 10:36:00,35.8,23.7,30.16,NW,315,11.4,-999.0,61,-99.99,,,0.00,Acu-Link.com,2013-02-01 16:36:00,
2013-02-01 10:51:00,36.5,24.0,30.16,NW,315,6.8,-999.0,60,-99.99,,,0.00,Acu-Link.com,2013-02-01 16:51:00,
2013-02-01 11:07:00,38.7,25.6,30.16,North,0,5.8,-999.0,59,-99.99,,,0.00,Acu-Link.com,2013-02-01 17:07:00,
2013-02-01 11:22:00,37.9,24.9,30.16,North,0,2.2,-999.0,59,-99.99,,,0.00,Acu-Link.com,2013-02-01 17:22:00,
2013-02-01 11:37:00,39.0,25.5,30.16,North,0,2.7,-999.0,58,-99.99,,,0.00,Acu-Link.com,2013-02-01 17:37:00,
2013-02-01 11:52:00,38.7,22.1,30.15,NNW,337,5.3,-999.0,51,-99.99,,,0.00,Acu-Link.com,2013-02-01 17:52:00,
2013-02-01 12:07:00,39.4,22.8,30.15,North,0,1.7,-999.0,51,-99.99,,,0.00,Acu-Link.com,2013-02-01 18:07:00,
2013-02-01 12:23:00,41.5,24.3,30.14,NNE,22,4.7,-999.0,50,-99.99,,,0.00,Acu-Link.com,2013-02-01 18:23:00,
2013-02-01 12:38:00,39.4,23.3,30.13,North,0,1.7,-999.0,52,-99.99,,,0.00,Acu-Link.com,2013-02-01 18:38:00,
2013-02-01 12:53:00,40.1,23.9,30.13,North,0,3.7,-999.0,52,-99.99,,,0.00,Acu-Link.com,2013-02-01 18:53:00,
2013-02-01 13:09:00,40.5,23.3,30.13,North,0,3.2,-999.0,50,-99.99,,,0.00,Acu-Link.com,2013-02-01 19:09:00,
2013-02-01 13:24:00,40.1,23.0,30.13,North,0,5.8,-999.0,50,-99.99,,,0.00,Acu-Link.com,2013-02-01 19:24:00,
2013-02-01 13:39:00,41.2,20.4,30.13,NNW,337,7.3,-999.0,43,-99.99,,,0.00,Acu-Link.com,2013-02-01 19:39:00,
2013-02-01 13:54:00,40.1,20.0,30.13,NNE,22,4.7,-999.0,44,-99.99,,,0.00,Acu-Link.com,2013-02-01 19:54:00,
2013-02-01 14:10:00,41.7,23.5,30.12,North,0,7.3,-999.0,48,-99.99,,,0.00,Acu-Link.com,2013-02-01 20:10:00,
2013-02-01 14:25:00,41.0,22.3,30.12,NE,45,3.2,-999.0,47,-99.99,,,0.00,Acu-Link.com,2013-02-01 20:25:00,
2013-02-01 14:40:00,41.9,23.7,30.12,WNW,292,4.2,-999.0,48,-99.99,,,0.00,Acu-Link.com,2013-02-01 20:40:00,
2013-02-01 14:55:00,40.8,23.1,30.11,ENE,67,6.3,-999.0,49,-99.99,,,0.00,Acu-Link.com,2013-02-01 20:55:00,
2013-02-01 15:10:00,41.0,22.3,30.11,NNW,337,4.7,-999.0,47,-99.99,,,0.00,Acu-Link.com,2013-02-01 21:10:00,
2013-02-01 15:25:00,40.5,21.9,30.11,West,270,5.3,-999.0,47,-99.99,,,0.00,Acu-Link.com,2013-02-01 21:25:00,
2013-02-01 15:40:00,40.5,22.4,30.11,West,270,5.8,-999.0,48,-99.99,,,0.00,Acu-Link.com,2013-02-01 21:40:00,
2013-02-01 15:55:00,40.5,21.4,30.12,NNW,337,3.2,-999.0,46,-99.99,,,0.00,Acu-Link.com,2013-02-01 21:55:00,
2013-02-01 16:11:00,40.1,20.5,30.12,North,0,7.3,-999.0,45,-99.99,,,0.00,Acu-Link.com,2013-02-01 22:11:00,
2013-02-01 16:27:00,39.2,19.7,30.12,North,0,4.2,-999.0,45,-99.99,,,0.00,Acu-Link.com,2013-02-01 22:27:00,
2013-02-01 16:42:00,38.5,18.5,30.12,SE,135,4.2,-999.0,44,-99.99,,,0.00,Acu-Link.com,2013-02-01 22:42:00,
2013-02-01 16:57:00,37.4,18.5,30.10,NNW,337,1.1,-999.0,46,-99.99,,,0.00,Acu-Link.com,2013-02-01 22:57:00,
2013-02-01 17:12:00,35.8,18.5,30.10,NNW,337,0.0,-999.0,49,-99.99,,,0.00,Acu-Link.com,2013-02-01 23:12:00,
2013-02-01 17:27:00,34.5,19.2,30.10,NNW,337,0.0,-999.0,53,-99.99,,,0.00,Acu-Link.com,2013-02-01 23:27:00,
2013-02-01 17:52:00,31.5,21.8,30.11,NNW,337,0.0,-999.0,67,-99.99,,,0.00,Acu-Link.com,2013-02-01 23:52:00,
2013-02-01 18:07:00,29.7,22.4,30.10,NNW,337,2.2,-999.0,74,-99.99,,,0.00,Acu-Link.com,2013-02-02 00:07:00,
2013-02-01 18:22:00,28.8,23.1,30.11,NNW,337,0.0,-999.0,79,-99.99,,,0.00,Acu-Link.com,2013-02-02 00:22:00,
2013-02-01 18:37:00,27.9,27.4,30.11,NNW,337,1.7,-999.0,98,-99.99,,,0.00,Acu-Link.com,2013-02-02 00:37:00,
2013-02-01 18:52:00,27.7,27.2,30.11,NNW,337,0.0,-999.0,98,-99.99,,,0.00,Acu-Link.com,2013-02-02 00:52:00,
2013-02-01 19:07:00,27.7,27.2,30.10,NNW,337,2.2,-999.0,98,-99.99,,,0.00,Acu-Link.com,2013-02-02 01:07:00,
2013-02-01 19:22:00,27.0,26.5,30.10,NNW,337,0.0,-999.0,98,-99.99,,,0.00,Acu-Link.com,2013-02-02 01:22:00,
2013-02-01 19:37:00,26.6,26.1,30.11,NNW,337,0.0,-999.0,98,-99.99,,,0.00,Acu-Link.com,2013-02-02 01:37:00,
2013-02-01 19:53:00,25.7,25.2,30.10,NNW,337,0.0,-999.0,98,-99.99,,,0.00,Acu-Link.com,2013-02-02 01:53:00,
2013-02-01 20:10:00,25.7,25.2,30.10,NNW,337,0.0,-999.0,98,-99.99,,,0.00,Acu-Link.com,2013-02-02 02:10:00,
2013-02-01 20:25:00,24.8,24.3,30.10,NNW,337,0.0,-999.0,98,-99.99,,,0.00,Acu-Link.com,2013-02-02 02:25:00,
2013-02-01 20:40:00,24.3,23.8,30.11,NNW,337,0.0,-999.0,98,-99.99,,,0.00,Acu-Link.com,2013-02-02 02:40:00,
2013-02-01 20:56:00,24.1,23.6,30.11,NNW,337,0.0,-999.0,98,-99.99,,,0.00,Acu-Link.com,2013-02-02 02:56:00,
2013-02-01 21:11:00,23.7,23.2,30.11,NNW,337,0.0,-999.0,98,-99.99,,,0.00,Acu-Link.com,2013-02-02 03:11:00,
2013-02-01 21:26:00,24.6,24.1,30.11,NNW,337,0.0,-999.0,98,-99.99,,,0.00,Acu-Link.com,2013-02-02 03:26:00,
2013-02-01 21:41:00,24.6,24.1,30.11,NNW,337,0.0,-999.0,98,-99.99,,,0.00,Acu-Link.com,2013-02-02 03:41:00,
2013-02-01 21:56:00,23.9,23.4,30.11,NNW,337,0.0,-999.0,98,-99.99,,,0.00,Acu-Link.com,2013-02-02 03:56:00,
2013-02-01 22:12:00,23.5,23.0,30.12,NNW,337,0.0,-999.0,98,-99.99,,,0.00,Acu-Link.com,2013-02-02 04:12:00,
2013-02-01 22:27:00,23.2,22.7,30.11,NNW,337,0.0,-999.0,98,-99.99,,,0.00,Acu-Link.com,2013-02-02 04:27:00,
2013-02-01 22:42:00,23.5,23.0,30.11,NNW,337,0.0,-999.0,98,-99.99,,,0.00,Acu-Link.com,2013-02-02 04:42:00,
2013-02-01 22:58:00,23.2,22.7,30.10,NNW,337,0.0,-999.0,98,-99.99,,,0.00,Acu-Link.com,2013-02-02 04:58:00,
2013-02-01 23:13:00,22.5,22.0,30.11,NNW,337,0.0,-999.0,98,-99.99,,,0.00,Acu-Link.com,2013-02-02 05:13:00,
2013-02-01 23:30:00,23.0,22.5,30.09,NNW,337,0.0,-999.0,98,-99.99,,,0.00,Acu-Link.com,2013-02-02 05:30:00,
2013-02-01 23:45:00,22.5,22.0,30.09,NNW,337,0.0,-999.0,98,-99.99,,,0.00,Acu-Link.com,2013-02-02 05:45:00,